Location: Bu�n Treun
(12.1333°N, 108.3167°E)
Time: 13:22:32
(UTC+00:00)

USA 234 - Pass Details

Date: 13 July 2020
Orbit: 1101 x 1106 km, 123.0° (Epoch: 02 August)

Event Time Altitude Azimuth Distance (km) Brightness Sun altitude
Exits shadow 12:42:07 27° 148° (SSE) 1,964 4.1 -19.9°
Maximum altitude 12:45:58 82° 234° (SW) 1,112 3.2 -20.7°
Drops below altitude 10° 12:52:29 10° 321° (NW) 2,950 6.5 -22.1°
Sets 12:54:58 0° 322° (NW) 3,907 7.3 -22.6°
